| time (UTC) | temp C | wind direction | speed KPH | gust KPH | rain 1hr cm | rain 24hr cm | rain mn cm | humidity % | barometer mb |
| 20260901111552 | 11 | 184 | 0.0 | 0.0 | 0.00 | 0.00 | 0.00 | 94 | 1012.6 |
| 20260901110049 | 12 | 184 | 0.0 | 0.0 | 0.00 | 0.00 | 0.00 | 95 | 1012.3 |
| 20260901104614 | 12 | 184 | 0.0 | 0.0 | 0.00 | 0.00 | 0.00 | 95 | 1012.3 |
| 20260901103032 | 12 | 184 | 0.0 | 0.0 | 0.00 | 0.00 | 0.00 | 94 | 1012.4 |
| 20260901101541 | 12 | 184 | 0.0 | 0.0 | 0.00 | 0.00 | 0.00 | 94 | 1012.2 |
| 20260901100048 | 13 | 184 | 0.0 | 0.0 | 0.00 | 0.00 | 0.00 | 95 | 1012.2 |
| 20260901094511 | 12 | 184 | 0.0 | 0.0 | 0.00 | 0.00 | 0.00 | 93 | 1011.9 |
| 20260901093023 | 12 | 184 | 0.0 | 0.0 | 0.00 | 0.00 | 0.00 | 93 | 1011.8 |
| 20260901091546 | 13 | 184 | 0.0 | 0.0 | 0.00 | 0.00 | 0.00 | 92 | 1011.7 |
| 20260901090031 | 13 | 184 | 0.0 | 0.0 | 0.00 | 0.00 | 0.00 | 91 | 1011.6 |
| 20260901084542 | 13 | 184 | 0.0 | 0.0 | 0.00 | 0.00 | 0.00 | 92 | 1011.3 |
| 20260901083052 | 13 | 184 | 0.0 | 1.6 | 0.00 | 0.00 | 0.00 | 92 | 1011.4 |
| 20260901081613 | 14 | 184 | 0.0 | 1.6 | 0.00 | 0.00 | 0.00 | 92 | 1011.6 |
| 20260901080127 | 14 | 184 | 0.0 | 0.0 | 0.00 | 0.00 | 0.00 | 92 | 1011.4 |
| 20260901074529 | 14 | 184 | 0.0 | 0.0 | 0.00 | 0.00 | 0.00 | 91 | 1011.5 |
| 20260901073031 | 15 | 184 | 0.0 | 0.0 | 0.00 | 0.00 | 0.00 | 90 | 1011.5 |
| 20260901071542 | 15 | 184 | 0.0 | 0.0 | 0.00 | 0.00 | 0.00 | 91 | 1011.5 |
| 20260901070041 | 15 | 184 | 0.0 | 0.0 | 0.00 | 0.00 | 0.00 | 92 | 1011.7 |
| 20260901064546 | 14 | 184 | 0.0 | 0.0 | 0.00 | 0.00 | 0.00 | 92 | 1011.9 |
| 20260901063050 | 15 | 184 | 0.0 | 0.0 | 0.00 | 0.00 | 0.00 | 91 | 1011.8 |
| 20260901061557 | 15 | 184 | 0.0 | 0.0 | 0.00 | 0.00 | 0.00 | 91 | 1011.7 |
| 20260901060056 | 15 | 184 | 0.0 | 0.0 | 0.00 | 0.00 | 0.00 | 91 | 1011.7 |
| 20260901054559 | 16 | 184 | 0.0 | 3.2 | 0.00 | 0.00 | 0.00 | 90 | 1011.5 |
| 20260901053014 | 16 | 184 | 1.6 | 4.8 | 0.00 | 0.00 | 0.00 | 91 | 1011.5 |
| 20260901051514 | 16 | 184 | 0.0 | 0.0 | 0.00 | 0.00 | 0.00 | 91 | 1011.5 |
| 20260901050023 | 16 | 184 | 0.0 | 0.0 | 0.00 | 0.00 | 0.00 | 90 | 1011.4 |
| 20260901044533 | 16 | 184 | 0.0 | 0.0 | 0.00 | 0.00 | 0.00 | 89 | 1011.6 |
| 20260901043047 | 16 | 184 | 0.0 | 0.0 | 0.00 | 0.00 | 0.00 | 87 | 1011.4 |
| 20260901041543 | 17 | 184 | 0.0 | 0.0 | 0.00 | 0.00 | 0.00 | 87 | 1011.5 |
| 20260901040055 | 17 | 184 | 0.0 | 0.0 | 0.00 | 0.00 | 0.00 | 86 | 1011.5 |
| 20260901034510 | 17 | 184 | 0.0 | 0.0 | 0.00 | 0.00 | 0.00 | 85 | 1011.3 |
| 20260901033028 | 18 | 184 | 0.0 | 0.0 | 0.00 | 0.00 | 0.00 | 85 | 1011.3 |
| 20260901031526 | 18 | 184 | 0.0 | 0.0 | 0.00 | 0.00 | 0.00 | 84 | 1011.2 |
| 20260901030039 | 18 | 184 | 0.0 | 0.0 | 0.00 | 0.00 | 0.00 | 82 | 1011.1 |
| 20260901024600 | 19 | 184 | 0.0 | 0.0 | 0.00 | 0.00 | 0.00 | 82 | 1011.0 |
| 20260901023011 | 20 | 184 | 0.0 | 0.0 | 0.00 | 0.00 | 0.00 | 80 | 1010.9 |
| 20260901021533 | 20 | 184 | 0.0 | 0.0 | 0.00 | 0.00 | 0.00 | 79 | 1010.7 |
| 20260901020042 | 21 | 184 | 0.0 | 0.0 | 0.00 | 0.00 | 0.00 | 79 | 1010.3 |
| 20260901014552 | 22 | 184 | 0.0 | 0.0 | 0.00 | 0.00 | 0.00 | 76 | 1010.1 |
| 20260901013101 | 22 | 184 | 0.0 | 0.0 | 0.00 | 0.00 | 0.00 | 75 | 1010.2 |
| 20260901011511 | 23 | 184 | 0.0 | 0.0 | 0.00 | 0.00 | 0.00 | 71 | 1010.0 |
| 20260901010019 | 25 | 184 | 0.0 | 0.0 | 0.00 | 0.00 | 0.00 | 67 | 1010.1 |
| 20260901004531 | 26 | 184 | 0.0 | 0.0 | 0.00 | 0.00 | 0.00 | 64 | 1010.1 |
| 20260901003049 | 26 | 184 | 0.0 | 0.0 | 0.00 | 0.00 | 0.00 | 62 | 1010.1 |
| 20260901001600 | 26 | 184 | 1.6 | 3.2 | 0.00 | 0.00 | 0.00 | 58 | 1009.9 |
| 20260901000056 | 26 | 184 | 1.6 | 3.2 | 0.00 | 0.00 | 0.00 | 61 | 1010.0 |
| 20260831234528 | 27 | 184 | 1.6 | 4.8 | 0.00 | 0.00 | 0.00 | 59 | 1010.2 |
| 20260831233033 | 27 | 184 | 1.6 | 4.8 | 0.00 | 0.00 | 0.00 | 59 | 1010.2 |
| 20260831231544 | 27 | 184 | 0.0 | 3.2 | 0.00 | 0.00 | 0.00 | 53 | 1010.3 |
| 20260831230055 | 28 | 230 | 3.2 | 4.8 | 0.00 | 0.00 | 0.00 | 47 | 1010.2 |
| 20260831224601 | 28 | 239 | 1.6 | 6.4 | 0.00 | 0.00 | 0.00 | 48 | 1010.1 |
| 20260831223013 | 28 | 250 | 3.2 | 8.0 | 0.00 | 0.00 | 0.00 | 47 | 1010.1 |
| 20260831221525 | 28 | 280 | 1.6 | 6.4 | 0.00 | 0.00 | 0.00 | 47 | 1010.2 |
| 20260831220031 | 28 | 234 | 3.2 | 6.4 | 0.00 | 0.00 | 0.00 | 47 | 1010.3 |
| 20260831214542 | 28 | 267 | 3.2 | 8.0 | 0.00 | 0.00 | 0.00 | 44 | 1010.3 |
| 20260831213049 | 27 | 285 | 3.2 | 14.5 | 0.00 | 0.00 | 0.00 | 46 | 1010.4 |
| 20260831211504 | 28 | 241 | 4.8 | 9.7 | 0.00 | 0.00 | 0.00 | 46 | 1010.4 |
| 20260831210004 | 27 | 278 | 3.2 | 9.7 | 0.00 | 0.00 | 0.00 | 49 | 1010.3 |
| 20260831204517 | 27 | 251 | 4.8 | 17.7 | 0.00 | 0.00 | 0.00 | 50 | 1010.4 |
| 20260831203037 | 27 | 251 | 6.4 | 14.5 | 0.00 | 0.00 | 0.00 | 52 | 1010.6 |
| 20260831201529 | 27 | 225 | 3.2 | 11.3 | 0.00 | 0.00 | 0.00 | 54 | 1010.6 |
| 20260831200039 | 27 | 211 | 4.8 | 14.5 | 0.00 | 0.00 | 0.00 | 54 | 1010.5 |
| 20260831194546 | 27 | 316 | 3.2 | 9.7 | 0.00 | 0.00 | 0.00 | 53 | 1010.5 |
| 20260831193054 | 27 | 251 | 4.8 | 14.5 | 0.00 | 0.00 | 0.00 | 55 | 1010.6 |
| 20260831191554 | 27 | 273 | 4.8 | 9.7 | 0.00 | 0.00 | 0.00 | 56 | 1010.4 |
| 20260831190135 | 26 | 299 | 4.8 | 11.3 | 0.00 | 0.00 | 0.00 | 56 | 1010.4 |
| 20260831184503 | 26 | 312 | 4.8 | 17.7 | 0.00 | 0.00 | 0.00 | 56 | 1010.3 |
| 20260831183016 | 26 | 284 | 3.2 | 11.3 | 0.00 | 0.00 | 0.00 | 58 | 1010.3 |
| 20260831181544 | 25 | 342 | 3.2 | 14.5 | 0.00 | 0.00 | 0.00 | 61 | 1010.5 |
| 20260831180037 | 25 | 333 | 6.4 | 16.1 | 0.00 | 0.00 | 0.00 | 60 | 1010.7 |
| 20260831174549 | 25 | 344 | 4.8 | 12.9 | 0.00 | 0.00 | 0.00 | 61 | 1010.9 |
| 20260831173040 | 25 | 292 | 4.8 | 16.1 | 0.00 | 0.00 | 0.00 | 59 | 1010.9 |
| 20260831171544 | 24 | 360 | 4.8 | 9.7 | 0.00 | 0.00 | 0.00 | 64 | 1010.7 |
| 20260831170043 | 23 | 337 | 4.8 | 11.3 | 0.00 | 0.00 | 0.00 | 69 | 1010.7 |
| 20260831164557 | 22 | 350 | 4.8 | 12.9 | 0.00 | 0.00 | 0.00 | 73 | 1010.5 |
| 20260831163055 | 22 | 355 | 4.8 | 11.3 | 0.00 | 0.00 | 0.00 | 75 | 1010.6 |
| 20260831161503 | 21 | 325 | 4.8 | 12.9 | 0.00 | 0.00 | 0.00 | 79 | 1010.7 |
| 20260831160033 | 21 | 328 | 4.8 | 12.9 | 0.00 | 0.00 | 0.00 | 85 | 1010.6 |
| 20260831154531 | 20 | 332 | 4.8 | 11.3 | 0.00 | 0.00 | 0.00 | 87 | 1010.7 |
| 20260831153116 | 20 | 335 | 4.8 | 12.9 | 0.00 | 0.00 | 0.00 | 87 | 1010.7 |
| 20260831151543 | 19 | 328 | 4.8 | 11.3 | 0.00 | 0.00 | 0.00 | 88 | 1010.6 |
| 20260831150048 | 19 | 336 | 8.0 | 16.1 | 0.00 | 0.00 | 0.00 | 89 | 1010.4 |
| 20260831144502 | 19 | 343 | 8.0 | 12.9 | 0.00 | 0.00 | 0.00 | 90 | 1010.5 |
| 20260831143002 | 18 | 349 | 6.4 | 12.9 | 0.00 | 0.00 | 0.00 | 92 | 1010.3 |
| 20260831141513 | 18 | 360 | 8.0 | 17.7 | 0.00 | 0.00 | 0.00 | 93 | 1009.9 |
| 20260831140010 | 18 | 328 | 9.7 | 16.1 | 0.00 | 0.00 | 0.00 | 93 | 1009.7 |
| 20260831134513 | 18 | 325 | 9.7 | 16.1 | 0.00 | 0.00 | 0.00 | 94 | 1009.4 |
| 20260831133021 | 17 | 328 | 8.0 | 16.1 | 0.00 | 0.00 | 0.00 | 96 | 1009.3 |
| 20260831131537 | 17 | 326 | 8.0 | 16.1 | 0.00 | 0.00 | 0.00 | 96 | 1009.1 |
| 20260831130041 | 17 | 342 | 6.4 | 17.7 | 0.00 | 0.00 | 0.00 | 96 | 1009.1 |
| 20260831124540 | 17 | 329 | 6.4 | 12.9 | 0.00 | 0.00 | 0.00 | 96 | 1009.0 |
| 20260831123047 | 17 | 311 | 4.8 | 14.5 | 0.00 | 0.00 | 0.00 | 96 | 1008.7 |
| 20260831121551 | 17 | 327 | 3.2 | 9.7 | 0.00 | 0.00 | 0.00 | 96 | 1008.3 |
| 20260831120142 | 17 | 12 | 4.8 | 9.7 | 0.00 | 0.00 | 0.00 | 95 | 1008.0 |
| 20260831114558 | 17 | 329 | 3.2 | 8.0 | 0.00 | 0.00 | 0.00 | 95 | 1007.7 |
| 20260831113058 | 18 | 321 | 0.0 | 4.8 | 0.00 | 0.00 | 0.00 | 95 | 1007.6 |